Weather History for KHOP - September, 2012

Change the Weather History Date:

Tuesday, September 18, 2012

  Actual Average Record
Temperature  
Mean Temperature 61 °F -  
Max Temperature 69 °F 79 °F 91 °F (1997)
Min Temperature 53 °F 56 °F 46 °F (1999)
Degree Days  
Heating Degree Days 4    
Growing Degree Days 11 (Base 50)    
Moisture  
Dew Point 60 °F    
Average Humidity 87    
Maximum Humidity 100    
Minimum Humidity 39    
Precipitation  
Precipitation 0.02 in - - ()
Sea Level Pressure  
Sea Level Pressure 29.82 in    
Wind  
Wind Speed 5 mph (WNW)    
Max Wind Speed 10 mph    
Max Gust Speed 20 mph    
Visibility 9 miles    
Events Rain    
Averages and records for this station are not official NWS values.
T = Trace of Precipitation, MM = Missing Value Source: NWS Daily Summary

Daily Weather History Graph

Daily Weather History Graph

Search for Another Location

Airport or City:

Trip Planner

Search our weather history database for the weather conditions in past years. The results will help you decide how hot, cold, wet, or windy it might be!

Date:

Astronomy

Sep. 18, 2012 Rise Set
Actual Time 6:35 AM CDT 6:52 PM CDT
Civil Twilight 6:09 AM CDT 7:17 PM CDT
Nautical Twilight 5:38 AM CDT 7:48 PM CDT
Astronomical Twilight 5:08 AM CDT 8:18 PM CDT
Moon 9:27 AM CDT (9/18) 8:22 PM CDT (9/18)
Length of Visible Light 13h 08m
Length of Day
12h 17m
Waxing Crescent, 9% of the Moon is Illuminated
Sep 18
Waxing Crescent
Sep 22
First Quarter
Sep 29
Full
Oct 8
Last Quarter
Oct 15
New

Hourly Weather History & Observations

Time (CDT) Temp. Dew Point Humidity Pressure Visibility Wind Dir Wind Speed Gust Speed Precip Events Conditions
12:16 AM 66.2 °F 66.2 °F 100% 29.76 in 7.0 mi West 4.6 mph - N/A   Mostly Cloudy
12:37 AM 66.2 °F 66.2 °F 100% 29.75 in 9.0 mi West 4.6 mph - N/A   Mostly Cloudy
12:55 AM 66.2 °F 66.2 °F 100% 29.75 in 10.0 mi West 5.8 mph - N/A   Mostly Cloudy
1:55 AM 66.2 °F 66.2 °F 100% 29.73 in 10.0 mi West 3.5 mph - N/A   Partly Cloudy
2:33 AM 66.2 °F 66.2 °F 100% 29.73 in 10.0 mi WSW 5.8 mph - N/A   Partly Cloudy
2:55 AM 66.6 °F 66.6 °F 100% 29.73 in 10.0 mi West 4.6 mph - N/A   Scattered Clouds
2:57 AM 66.2 °F 66.2 °F 100% 29.73 in 10.0 mi West 4.6 mph - N/A   Mostly Cloudy
2:58 AM 66.2 °F 66.2 °F 100% 29.73 in 10.0 mi West 4.6 mph - N/A   Mostly Cloudy
3:18 AM 66.2 °F 66.2 °F 100% 29.73 in 9.0 mi WSW 5.8 mph - N/A   Overcast
3:55 AM 67.3 °F 67.3 °F 100% 29.73 in 8.0 mi WNW 5.8 mph - N/A   Overcast
3:58 AM 68.0 °F 68.0 °F 100% 29.73 in 8.0 mi West 5.8 mph - N/A   Overcast
4:27 AM 68.0 °F 68.0 °F 100% 29.73 in 8.0 mi WNW 4.6 mph - N/A   Overcast
4:31 AM 68.0 °F 68.0 °F 100% 29.73 in 8.0 mi West 4.6 mph - N/A   Overcast
4:37 AM 68.0 °F 68.0 °F 100% 29.73 in 8.0 mi West 5.8 mph - N/A   Overcast
4:55 AM 67.5 °F 67.5 °F 100% 29.75 in 8.0 mi West 4.6 mph - N/A   Overcast
5:00 AM 68.0 °F 68.0 °F 100% 29.75 in 8.0 mi West 4.6 mph - N/A   Overcast
5:10 AM 68.0 °F 68.0 °F 100% 29.75 in 7.0 mi West 4.6 mph - N/A   Overcast
5:15 AM 68.0 °F 68.0 °F 100% 29.75 in 7.0 mi West 4.6 mph - N/A   Overcast
5:27 AM 68.0 °F 68.0 °F 100% 29.75 in 8.0 mi Variable 3.5 mph - N/A   Drizzle
5:36 AM 68.0 °F 68.0 °F 100% 29.75 in 7.0 mi Variable 3.5 mph - N/A   Overcast
5:37 AM 68.0 °F 68.0 °F 100% 29.75 in 6.0 mi Variable 4.6 mph - N/A   Overcast
5:38 AM 68.0 °F 68.0 °F 100% 29.75 in 6.0 mi Variable 3.5 mph - N/A Rain Light Rain
5:48 AM 68.0 °F 68.0 °F 100% 29.75 in 5.0 mi Variable 4.6 mph - N/A Rain Light Rain
5:54 AM 68.0 °F 68.0 °F 100% 29.75 in 7.0 mi WNW 5.8 mph - N/A   Overcast
5:55 AM 67.3 °F 67.3 °F 100% 29.75 in 7.0 mi WNW 4.6 mph - 0.02 in   Overcast
6:15 AM 68.0 °F 68.0 °F 100% 29.75 in 7.0 mi Variable 4.6 mph - N/A   Mostly Cloudy
6:21 AM 68.0 °F 68.0 °F 100% 29.76 in 7.0 mi Variable 4.6 mph - N/A   Mostly Cloudy
6:38 AM 66.2 °F 66.2 °F 100% 29.76 in 7.0 mi Variable 3.5 mph - N/A   Mostly Cloudy
6:44 AM 66.2 °F 66.2 °F 100% 29.77 in 9.0 mi Variable 6.9 mph - N/A   Mostly Cloudy
6:52 AM 66.2 °F 66.2 °F 100% 29.77 in 10.0 mi Variable 5.8 mph - N/A   Mostly Cloudy
6:55 AM 66.6 °F 66.6 °F 100% 29.78 in 10.0 mi Variable 5.8 mph - N/A   Overcast
7:06 AM 66.2 °F 66.2 °F 100% 29.78 in 10.0 mi Variable 4.6 mph - N/A   Overcast
7:55 AM 63.3 °F 63.3 °F 100% 29.82 in 10.0 mi WNW 10.4 mph 19.6 mph N/A   Overcast
7:59 AM 62.6 °F 62.6 °F 100% 29.82 in 10.0 mi NNW 5.8 mph 19.6 mph N/A   Overcast
8:55 AM 60.3 °F 60.3 °F 100% 29.85 in 10.0 mi Variable 6.9 mph - N/A   Overcast
8:59 AM 60.8 °F 60.8 °F 100% 29.85 in 10.0 mi Variable 3.5 mph - N/A   Overcast
9:20 AM 60.8 °F 59.0 °F 94% 29.86 in 10.0 mi Variable 5.8 mph - N/A   Overcast
9:27 AM 60.8 °F 59.0 °F 94% 29.86 in 10.0 mi Variable 5.8 mph - N/A   Overcast
9:55 AM 61.9 °F 58.8 °F 90% 29.87 in 10.0 mi Variable 5.8 mph - N/A   Mostly Cloudy
10:35 AM 62.6 °F 55.4 °F 77% 29.88 in 10.0 mi NW 5.8 mph 16.1 mph N/A   Scattered Clouds
10:55 AM 65.1 °F 54.0 °F 67% 29.88 in 10.0 mi Variable 6.9 mph - N/A   Partly Cloudy
11:55 AM 66.9 °F 50.5 °F 56% 29.90 in 10.0 mi Variable 4.6 mph - N/A   Clear
12:55 PM 67.6 °F 50.0 °F 53% 29.91 in 10.0 mi NNW 8.1 mph - N/A   Clear
1:55 PM 68.7 °F 45.7 °F 44% 29.92 in 10.0 mi Variable 4.6 mph - N/A   Clear
2:55 PM 69.3 °F 44.6 °F 41% 29.91 in 10.0 mi Variable 5.8 mph - N/A   Clear
3:55 PM 68.7 °F 42.6 °F 39% 29.94 in 10.0 mi NW 8.1 mph - N/A   Clear
4:55 PM 67.8 °F 43.0 °F 41% 29.95 in 10.0 mi Variable 3.5 mph - N/A   Clear
5:55 PM 65.5 °F 41.4 °F 41% 29.97 in 10.0 mi Variable 4.6 mph - N/A   Clear
6:55 PM 61.7 °F 42.3 °F 49% 29.99 in 10.0 mi Calm Calm - N/A   Clear
7:55 PM 57.7 °F 44.4 °F 61% 30.01 in 10.0 mi Calm Calm - N/A   Clear
8:55 PM 57.4 °F 42.1 °F 57% 30.04 in 10.0 mi Calm Calm - N/A   Clear
9:55 PM 55.6 °F 43.0 °F 63% 30.06 in 10.0 mi Calm Calm - N/A   Clear
10:55 PM 53.8 °F 43.5 °F 68% 30.09 in 10.0 mi Calm Calm - N/A   Clear
11:55 PM 53.8 °F 42.4 °F 65% 30.09 in 10.0 mi Calm Calm - N/A   Clear